Flag for Norway Weather past 2 weeks in Mo i Rana, Norway

Now
55 °F

Sunny.


Feels Like: 55 °F
Forecast: 37 / 55 °F
Wind: 2 mph from North

Location: Mo I Rana / Rossvoll

Current Time: Sep 3, 2015 at 8:07:42 PM

Latest Report: Sep 3, 2015 at 7:20 PM


Visibility: 10 mi

Pressure: 29.86 "Hg

Humidity: 72%

Dew point: 46 °F

Location of Mo i RanaLocation

Historic Weather in Mo i Rana — Graph

°F

Mo i Rana temperature yesterday

Maximum temperature yesterday: 61 °F (at 3:50 PM)
Minimum temperature yesterday: 37 °F (at 5:20 AM)
Average temperature yesterday: 50 °F

Past Weeks' High & Low Weather Summary

 TemperatureHumidityPressure
High77 °F (Aug 20, 2:50 PM)100% (Aug 24, 5:50 AM)30.30 "Hg (Aug 24, 5:50 AM)
Low36 °F (Sep 3, 6:20 AM)32% (Aug 24, 4:20 PM)29.24 "Hg (Aug 28, 8:20 AM)
Average61 °F67%29.94 "Hg
* Reported Aug 19 5:20 PM — Sep 3 5:50 PM, Mo i Rana, Weather by CustomWeather, © 2015

Note: Actual official high and low records may vary slightly from our data, if they occured in-between our weather recording intervals... More about our weather records

Advertising

Mo i Rana weather history for previous 24 hours

 ConditionsComfort  
Time TempWeatherWind HumidityBarometerVisibility
5:50 PM
Thu, Sep 3
59 °FSunny.5 mph59%29.89 "Hg10 mi
5:20 PM61 °FSunny.6 mph52%29.89 "Hg10 mi
4:50 PM61 °FPassing clouds.6 mph52%29.89 "HgN/A
4:20 PM61 °FPassing clouds.8 mph48%29.89 "HgN/A
3:50 PM61 °FPassing clouds.8 mph52%29.92 "HgN/A
3:20 PM61 °FPassing clouds.8 mph48%29.92 "HgN/A
2:50 PM61 °FPassing clouds.8 mph52%29.92 "HgN/A
2:20 PM59 °FPassing clouds.2 mph55%29.95 "HgN/A
1:50 PM57 °FPassing clouds.5 mph59%29.95 "HgN/A
12:50 PM57 °FPassing clouds.2 mph59%29.95 "HgN/A
11:50 AM54 °FPassing clouds.2 mph67%29.98 "HgN/A
11:20 AM50 °FSunny.2 mph71%29.98 "Hg10 mi
10:50 AM50 °FSunny.2 mph71%30.01 "Hg10 mi
9:50 AM48 °FSunny.2 mph76%30.01 "Hg10 mi
9:20 AM46 °FSunny.2 mph76%30.01 "Hg10 mi
8:50 AM45 °FSunny.2 mph81%30.01 "Hg10 mi
7:50 AM39 °FSunny.1 mph93%30.04 "Hg10 mi
6:50 AM37 °FSunny.3 mph93%30.04 "Hg10 mi
6:20 AM36 °FClear.2 mph100%30.04 "Hg10 mi
9:50 PM
Wed, Sep 2
45 °FClear.3 mph93%30.04 "Hg10 mi
8:50 PM45 °FSunny.2 mph87%30.04 "Hg10 mi
Weather by CustomWeather, © 2015

See weather overviewHow to use our weather pages